Weather History for KNCA - October, 2011

Change the Weather History Date:

Saturday, October 29, 2011

  Actual Average (KEWN) Record (KEWN)
Temperature  
Mean Temperature 50 °F 60 °F  
Max Temperature 55 °F 71 °F 85 °F (1984)
Min Temperature 42 °F 49 °F 29 °F (1976)
Degree Days  
Heating Degree Days 15 6  
Month to date heating degree days 98  
Since 1 July heating degree days 105  
Cooling Degree Days 0 1  
Month to date cooling degree days 80  
Year to date cooling degree days 1883  
Moisture  
Dew Point 45 °F    
Average Humidity 84    
Maximum Humidity 97    
Minimum Humidity 66    
Precipitation  
Precipitation 0.06 in 0.10 in 2.20 in (1956)
Month to date precipitation 3.06  
Year to date precipitation 45.75  
Snow  
Snow 0.00 in - - ()
Month to date snowfall  
Since 1 July snowfall  
Snow Depth -    
Sea Level Pressure  
Sea Level Pressure 29.92 in    
Wind  
Wind Speed 10 mph (NW)    
Max Wind Speed 23 mph    
Max Gust Speed 34 mph    
Visibility 8 miles    
Events Rain    
T = Trace of Precipitation, MM = Missing Value Source: NWS Daily Summary

Daily Weather History Graph

Daily Weather History Graph

Search for Another Location

Airport or City:

Trip Planner

Search our weather history database for the weather conditions in past years. The results will help you decide how hot, cold, wet, or windy it might be!

Date:

Astronomy

Oct. 29, 2011 Rise Set
Actual Time 7:27 AM EDT 6:19 PM EDT
Civil Twilight 7:01 AM EDT 6:45 PM EDT
Nautical Twilight 6:31 AM EDT 7:14 PM EDT
Astronomical Twilight 6:02 AM EDT 7:44 PM EDT
Moon 10:39 AM EDT (10/29) 8:48 PM EDT (10/29)
Length of Visible Light 11h 43m
Length of Day
10h 51m
Waxing Crescent, 11% of the Moon is Illuminated
Oct 29
Waxing Crescent
Nov 2
First Quarter
Nov 10
Full
Nov 18
Last Quarter
Nov 25
New

Hourly Weather History & Observations

Time (EDT) Temp. Windchill Dew Point Humidity Pressure Visibility Wind Dir Wind Speed Gust Speed Precip Events Conditions
12:56 AM 51.1 °F - 48.9 °F 92% 29.97 in 10.0 mi North 8.1 mph - N/A   Overcast
1:56 AM 52.0 °F - 48.9 °F 89% 29.94 in 10.0 mi North 4.6 mph - N/A   Mostly Cloudy
2:56 AM 52.0 °F - 50.0 °F 93% 29.90 in 10.0 mi North 4.6 mph - N/A   Overcast
3:56 AM 52.0 °F - 51.1 °F 97% 29.89 in 3.0 mi NNW 3.5 mph - 0.04 in Rain Rain
4:56 AM 52.0 °F - 51.1 °F 97% 29.87 in 9.0 mi NW 3.5 mph - 0.01 in   Overcast
5:56 AM 52.0 °F - 51.1 °F 97% 29.86 in 8.0 mi West 6.9 mph - 0.00 in Rain Light Rain
6:56 AM 52.0 °F - 51.1 °F 97% 29.87 in 6.0 mi WNW 5.8 mph - 0.00 in   Overcast
7:38 AM 51.8 °F - 50.0 °F 94% 29.85 in 5.0 mi NW 8.1 mph - 0.01 in   Overcast
7:56 AM 50.0 °F - 48.9 °F 96% 29.86 in 3.0 mi NW 10.4 mph - 0.01 in   Overcast
8:12 AM 50.0 °F - 48.2 °F 94% 29.86 in 2.5 mi WNW 11.5 mph - N/A   Overcast
8:30 AM 50.0 °F - 48.2 °F 94% 29.86 in 1.8 mi NW 5.8 mph - N/A   Overcast
8:46 AM 50.0 °F - 48.2 °F 94% 29.86 in 2.0 mi NW 8.1 mph - N/A   Overcast
8:56 AM 50.0 °F - 48.9 °F 96% 29.87 in 3.0 mi NW 8.1 mph - N/A   Overcast
9:56 AM 48.9 °F - 48.0 °F 97% 29.89 in 3.0 mi WNW 12.7 mph - N/A   Overcast
10:56 AM 48.9 °F - 46.9 °F 93% 29.90 in 6.0 mi WNW 9.2 mph - N/A   Overcast
11:56 AM 48.0 °F - 46.9 °F 96% 29.89 in 10.0 mi WNW 11.5 mph - 0.00 in   Overcast
12:08 PM 48.2 °F - 46.4 °F 93% 29.87 in 10.0 mi WNW 9.2 mph - N/A   Overcast
12:42 PM 51.8 °F - 46.4 °F 82% 29.86 in 10.0 mi WNW 16.1 mph - N/A   Mostly Cloudy
12:56 PM 54.0 °F - 48.0 °F 80% 29.87 in 10.0 mi WNW 16.1 mph 21.9 mph N/A   Mostly Cloudy
1:16 PM 55.4 °F - 46.4 °F 72% 29.86 in 10.0 mi NW 20.7 mph - N/A   Scattered Clouds
1:35 PM 51.8 °F - 44.6 °F 76% 29.86 in 10.0 mi WNW 20.7 mph 31.1 mph N/A   Mostly Cloudy
1:52 PM 51.8 °F - 44.6 °F 76% 29.86 in 10.0 mi NW 18.4 mph 27.6 mph N/A   Overcast
1:56 PM 51.1 °F - 44.1 °F 77% 29.87 in 10.0 mi WNW 18.4 mph 26.5 mph N/A   Overcast
2:23 PM 51.8 °F - 42.8 °F 71% 29.87 in 10.0 mi NW 21.9 mph 29.9 mph N/A   Overcast
2:56 PM 51.1 °F - 43.0 °F 74% 29.89 in 10.0 mi NW 20.7 mph 29.9 mph N/A   Overcast
3:56 PM 48.9 °F - 39.9 °F 71% 29.91 in 10.0 mi NNW 23.0 mph 34.5 mph N/A   Overcast
4:56 PM 48.9 °F - 39.0 °F 69% 29.94 in 10.0 mi NNW 20.7 mph 28.8 mph N/A   Overcast
5:46 PM 50.0 °F - 39.2 °F 66% 29.95 in 10.0 mi NW 11.5 mph - N/A   Mostly Cloudy
5:56 PM 50.0 °F - 39.9 °F 68% 29.96 in 10.0 mi NW 11.5 mph - N/A   Scattered Clouds
6:56 PM 48.9 °F - 39.0 °F 69% 29.99 in 10.0 mi NNW 11.5 mph - N/A   Clear
7:56 PM 46.9 °F - 37.9 °F 71% 30.01 in 10.0 mi NW 10.4 mph - N/A   Clear
8:56 PM 46.9 °F - 37.0 °F 68% 30.04 in 10.0 mi NW 10.4 mph - N/A   Clear
9:56 PM 46.0 °F 41.4 °F 37.0 °F 71% 30.07 in 10.0 mi NNW 9.2 mph - N/A   Clear
10:56 PM 45.0 °F 40.1 °F 37.0 °F 74% 30.10 in 10.0 mi NNW 9.2 mph - N/A   Clear
11:56 PM 42.1 °F 36.6 °F 37.0 °F 82% 30.12 in 10.0 mi NNW 9.2 mph - N/A   Clear